sat.trackr.live / text

‹ back to catalog

STARLINK-31858

NORAD 59658 · 2024-084E

PAYLOAD ACTIVE UNKNOWN

§ Identity

Operator
Country
US
Launch date
2024-05-06
Launch site
AFETR
Launch vehicle
Mass (kg)
RCS (m²)

Purposes: comms

External: N2YO · Heavens-Above · Gunter

§ Orbital elements

Epoch: 2026-09-21T18:23:24.145152Z

Period
94.26 min
Inclination
43.0051°
Eccentricity
0.0001670
Mean motion
15.27621309 rev/d
Perigee alt
481.8 km
Apogee alt
484.1 km
Semi-major
6,861.1 km
B*
-2.0282e-4
RAAN
14.1910°
Arg perigee
275.5031°
Mean anomaly
84.5630°
Rev number
13,436

§ Raw data

STARLINK-318581 59658U 24084E   26264.76625168 -.00005846  00000+0 -20282-3 0  99932 59658  43.0051  14.1910 0001670 275.5031  84.5630 15.27621309134360

JSON: /api/v1/satellites/59658 · /tle

For live sub-satellite position, see the globe view (requires WebGL).

§ Visibility from observer

Set your observer location to see the next 7 days of passes ≥ 10°. The values pass through the URL so the page stays shareable.

No JS? Fill the form by hand. The geolocation button needs JavaScript.